Lid_Strength_Index
12 11 11 10 11 12 12 12 12 11 11 10 9 8 7 7 6 5 4 3 2 1 1 1 1 1 1 1 2 2 2 2
12 12 12 11 11 11 12 12 12 12 11 10 10 9 8 7 5 4 3 2 2 3 5 5 5 4 3 4 3 3 5 5
13 13 13 13 12 12 12 12 12 11 10 10 10 9 9 8 7 6 7 6 7 7 7 7 6 6 6 7 8 8 9 8
13 13 14 14 13 12 12 13 12 12 11 11 11 11 11 10 9 8 8 9 9 9 9 9 9 8 8 9 9 9 10 10
14 14 14 14 13 13 13 12 12 12 12 12 12 12 12 11 11 10 10 10 10 10 10 10 10 9 10 10 10 10 11 11
17 16 17 16 13 13 13 13 12 13 13 13 13 12 12 12 11 11 11 11 11 11 11 11 10 10 9 9 10 10 11 12
15 16 17 18 16 13 15 13 13 12 13 13 13 13 13 12 12 11 11 11 11 11 11 12 10 10 10 10 11 12 12 13
14 16 17 17 14 14 14 13 13 14 13 13 13 13 13 12 13 13 13 12 12 12 12 12 11 10 11 11 12 12 12 13
13 13 14 14 16 14 13 14 14 13 13 13 13 13 13 13 14 14 14 14 14 13 12 12 11 11 11 12 13 13 14 13
12 13 13 13 13 13 14 14 15 15 15 13 14 14 14 14 14 15 15 15 15 14 14 14 13 11 12 12 13 14 14 13
13 13 13 14 14 14 15 15 16 15 15 15 14 15 15 15 15 15 15 15 15 15 15 15 14 12 11 11 13 13 13 13
13 13 14 14 14 14 15 15 15 15 15 15 15 15 15 15 15 15 14 14 15 15 15 14 14 13 11 11 13 13 13 13
14 14 15 14 14 14 14 15 16 16 16 17 16 14 15 16 16 16 16 17 17 17 16 15 14 12 12 12 12 12 15 15
14 16 17 18 17 16 17 17 18 19 20 19 18 15 15 16 16 17 17 17 16 16 17 16 15 14 12 12 13 13 15 15
16 17 18 19 18 18 18 18 20 20 19 19 19 18 17 15 15 17 18 18 17 17 18 18 18 17 16 15 16 15 16 15
15 17 17 19 19 21 20 19 17 17 17 18 18 19 18 17 17 17 17 16 20 20 19 21 21 18 15 16 19 20 17 22
16 17 17 18 19 20 20 19 17 15 15 16 18 19 18 19 19 13 14 14 13 13 17 19 15 14 14 15 15 15 15 24
15 15 17 17 17 18 19 19 16 15 17 17 17 18 19 20 20 18 15 14 14 14 13 14 15 15 15 15 15 15 17 26
15 16 16 16 16 17 19 19 17 16 18 16 16 17 18 18 18 20 21 22 25 17 17 15 15 15 15 15 17 24 24 28
14 15 15 15 15 18 19 19 17 15 16 16 18 18 18 19 19 19 19 19 24 26 19 20 16 16 17 16 26 26 28 29